Tracking 19706 objects as of 16-Jun-2019
HD Live streaming from Space Station
objects crossing your sky now

THORAD AGENA D DEB

Track THORAD AGENA D DEB now!
10-day predictions


NORAD ID: 5025
Int'l Code: 1970-025HZ
Perigee: 1,047.5 km
Apogee: 1,114.9 km
Inclination: 100.2 °
Period: 106.7 minutes
Semi major axis: 7452 km
RCS: 0.0104 m2 (small)
Launch date: April 8, 1970
Source: United States (US)
Launch site: AIR FORCE WESTERN TEST RANGE (AFWTR)

Note: This is SATELLITE DEBRIS
aabbcc
Your satellite tracking list
Your tracking list is empty




NASA's NSSDC Master Catalog

Two Line Element Set (TLE):
1  5025U 70025HZ  19166.91695299 +.00000045 +00000-0 +14367-3 0  9992
2  5025 100.1795 141.7342 0045268 134.9631 281.5443 13.49513895414207
Source of the keplerian elements: AFSPC